Entrance, British Columbia

7:43 AM PDT on May 26, 2018 (GMT -0700)
Entrance

Weather History for CWEL - December, 2012

Change the Weather History Date:

Friday, December 28, 2012

  Actual Average Record
Temperature  
Mean Temperature 42 °F -  
Max Temperature 43 °F - - ()
Min Temperature 40 °F - - ()
Degree Days  
Heating Degree Days 24    
Moisture  
Dew Point -    
Average Humidity    
Maximum Humidity    
Minimum Humidity    
Precipitation  
Precipitation 0.04 in - - ()
Sea Level Pressure  
Sea Level Pressure 30.11 in    
Wind  
Wind Speed 15 mph ()    
Max Wind Speed 22 mph    
Max Gust Speed -    
T = Trace of Precipitation, MM = Missing Value Source: Averaged Metar Reports

Daily Weather History Graph

Daily Weather History Graph

Search for Another Location

Airport or City:

Astronomy

Dec. 28, 2012 Rise Set
Actual Time 8:10 AM PST 4:24 PM PST
Civil Twilight 7:32 AM PST 5:01 PM PST
Nautical Twilight 6:51 AM PST 5:42 PM PST
Astronomical Twilight 6:13 AM PST 6:21 PM PST
Moon 5:12 PM PST (12/28) 8:03 AM PST (12/28)
Length of Visible Light 9h 29m
Length of Day
8h 14m
Full, 100% of the Moon is Illuminated
Dec 28
Full
Jan 4
Last Quarter
Jan 11
New
Jan 18
First Quarter
Jan 26
Full

Hourly Weather History & Observations

Time (PST) Temp. Windchill Dew Point Humidity Pressure Visibility Wind Dir Wind Speed Gust Speed Precip Events Conditions
12:00 AM 42.1 °F 33.6 °F - N/A% 30.11 in - ESE 18.4 mph - 0.01 in   Unknown
1:00 AM 42.1 °F 33.3 °F - N/A% 30.11 in - ESE 19.6 mph - N/A   Unknown
2:00 AM 41.7 °F 32.3 °F - N/A% 30.09 in - ESE 21.9 mph - 0.02 in   Unknown
3:00 AM 41.9 °F 32.6 °F - N/A% 30.10 in - ESE 21.9 mph - N/A   Unknown
4:00 AM 42 °F - - % 30.09 in - ESE 20.7 mph - -  
4:00 AM 42.1 °F 33.1 °F - N/A% 30.09 in - ESE 20.7 mph - 0.01 in   Unknown
5:00 AM 42.3 °F 33.3 °F - N/A% 30.09 in - ESE 20.7 mph - N/A   Unknown
6:00 AM 42.3 °F 33.1 °F - N/A% 30.08 in - ESE 21.9 mph - N/A   Unknown
7:00 AM 42.6 °F 33.8 °F - N/A% 30.08 in - ESE 20.7 mph - N/A   Unknown
8:00 AM 42.8 °F 34.3 °F - N/A% 30.08 in - ESE 19.6 mph - N/A   Unknown
9:00 AM 43.0 °F 35.1 °F - N/A% 30.10 in - ESE 17.3 mph - 0.01 in   Unknown
10:00 AM 43 °F - - % 30.11 in - ESE 16.1 mph - -  
10:00 AM 43.2 °F 35.6 °F - N/A% 30.11 in - ESE 16.1 mph - N/A   Unknown
11:00 AM 42.8 °F 35.8 °F - N/A% 30.12 in - SE 13.8 mph - 0.01 in   Unknown
12:00 PM 42.1 °F 35.7 °F - N/A% 30.11 in - SE 11.5 mph - N/A   Unknown
1:00 PM 42.1 °F 36.1 °F - N/A% 30.11 in - SE 10.4 mph - 0.01 in   Unknown
2:00 PM 42.3 °F 36.3 °F - N/A% 30.11 in - SE 10.4 mph - N/A   Unknown
3:00 PM 42.3 °F 36.8 °F - N/A% 30.11 in - SE 9.2 mph - N/A   Unknown
4:00 PM 42 °F - - % 30.12 in - SSE 8.1 mph - -  
4:00 PM 42.1 °F 37.1 °F - N/A% 30.12 in - SSE 8.1 mph - 0.01 in   Unknown
6:00 PM 42.1 °F 38.4 °F - N/A% 30.12 in - SSE 5.8 mph - 0.01 in   Unknown
8:00 PM 42.1 °F 37.7 °F - N/A% 30.12 in - SSE 6.9 mph - 0.01 in   Unknown
9:00 PM 42.3 °F 37.3 °F - N/A% 30.12 in - SE 8.1 mph - 0.01 in   Unknown
10:00 PM 42 °F - - % 30.13 in - East 11.5 mph - -  
10:00 PM 42.1 °F 35.7 °F - N/A% 30.13 in - East 11.5 mph - 0.01 in   Unknown
11:00 PM 42.6 °F 35.9 °F - N/A% 30.13 in - ESE 12.7 mph - N/A   Unknown